Date,TemperatureHighF,TemperatureAvgF,TemperatureLowF,DewpointHighF,DewpointAvgF,DewpointLowF,HumidityHigh,HumidityAvg,HumidityLow,PressureMaxIn,PressureMinIn,WindSpeedMaxMPH,WindSpeedAvgMPH,GustSpeedMaxMPH,PrecipitationSumIn
2014-1-1,32.6,24.9,20.3,19.5,14.3,9.5,88,65,48,30.41,30.26,13,2,13,0.00
2014-1-2,21.1,11.6,5.9,18.0,8.4,2.9,89,87,85,30.34,29.85,21,5,21,0.00
2014-1-3,14.0,6.3,1.3,6.3,-0.0,-5.6,87,76,48,30.51,29.82,20,4,20,0.00
2014-1-4,25.4,13.5,-2.7,11.7,4.3,-6.6,86,68,48,30.55,30.31,18,2,20,0.00
2014-1-5,36.2,25.7,13.7,31.7,19.4,8.9,93,77,57,30.34,29.76,12,1,12,0.09
2014-1-6,53.4,38.3,20.9,52.4,31.3,13.1,97,77,48,29.75,29.29,26,4,30,0.73
2014-1-7,20.7,9.8,6.7,12.6,-5.3,-11.4,71,50,36,30.34,29.64,27,5,27,0.00
2014-1-8,24.3,14.7,5.8,10.3,2.4,-4.4,69,58,45,30.54,30.34,12,2,13,0.00
2014-1-9,34.5,22.4,15.9,21.2,12.1,6.9,81,65,49,30.67,30.49,9,1,9,0.00
2014-1-10,36.4,29.5,19.3,32.9,25.1,13.4,89,83,71,30.61,30.23,7,1,7,0.05
2014-1-11,54.2,43.5,33.4,53.2,42.0,31.3,97,94,89,30.23,29.25,17,1,21,0.89
2014-1-12,49.9,42.2,30.6,48.5,31.1,25.3,95,65,51,30.04,29.34,27,4,28,0.00
2014-1-13,47.4,38.5,29.4,35.8,31.0,25.1,87,75,59,30.11,29.86,12,1,14,0.00
2014-1-14,44.9,42.2,36.7,43.2,39.2,33.5,95,89,75,29.86,29.67,9,0,9,0.36
2014-1-15,49.1,38.5,28.4,39.8,34.6,26.8,95,87,67,29.98,29.83,10,1,10,0.01
2014-1-16,39.3,33.7,30.8,37.1,28.8,26.1,92,82,75,29.97,29.88,11,2,12,0.01
2014-1-17,42.7,33.2,25.2,30.9,27.5,22.8,93,81,58,29.97,29.91,13,1,13,0.00
2014-1-18,36.2,31.0,23.4,34.1,27.6,19.9,93,87,73,29.91,29.67,8,0,9,0.04
2014-1-19,35.1,28.9,23.3,24.5,21.5,18.1,90,74,61,29.82,29.59,22,3,23,0.00
2014-1-20,41.5,34.7,25.9,32.7,24.2,10.7,79,65,52,29.93,29.54,21,2,21,0.01
2014-1-21,26.0,14.3,8.3,11.7,2.7,-4.1,70,60,49,30.10,29.93,19,5,23,0.00
2014-1-22,14.3,7.9,1.9,5.3,-3.3,-9.4,75,60,50,30.04,29.85,24,6,24,0.00
2014-1-23,24.0,13.6,5.2,7.7,1.5,-3.2,74,59,40,30.28,30.03,16,2,16,0.00
2014-1-24,25.0,15.4,6.3,5.3,1.1,-2.4,74,53,36,30.38,30.05,21,3,21,0.00
2014-1-25,25.4,20.3,16.3,22.1,12.6,2.4,88,73,52,30.05,29.42,17,2,17,0.00
2014-1-26,24.7,18.6,11.8,17.0,8.4,-0.1,84,65,48,29.88,29.42,18,2,18,0.00
2014-1-27,37.2,25.8,17.0,28.6,13.2,-0.2,77,60,34,30.12,29.57,23,3,23,0.02
2014-1-28,22.1,15.6,6.0,5.9,0.2,-5.1,67,50,41,30.39,30.12,15,2,17,0.01
2014-1-29,27.4,18.5,8.5,7.3,1.3,-3.4,74,48,30,30.30,30.03,16,2,16,0.00
2014-1-30,32.0,20.4,8.6,13.4,5.4,-1.1,69,52,37,30.48,30.18,10,2,11,0.00
2014-1-31,41.4,30.9,22.8,24.5,15.5,7.4,66,53,40,30.24,30.07,13,2,13,0.00
2014-2-1,45.6,38.0,27.7,29.7,25.7,22.3,82,62,49,30.34,30.02,12,2,12,0.00
2014-2-2,43.4,38.4,34.7,38.7,33.2,28.1,91,82,66,30.12,29.87,10,1,10,0.07
2014-2-3,35.4,29.5,22.4,29.4,24.4,17.5,92,81,67,30.34,30.12,14,2,14,0.00
2014-2-4,32.7,24.1,11.9,24.5,17.5,8.5,91,76,63,30.52,30.31,5,0,5,0.11
2014-2-5,31.0,26.7,23.9,27.4,23.5,19.4,92,88,73,30.32,29.69,14,2,14,0.00
2014-2-6,27.1,20.8,13.6,21.3,13.8,8.9,87,74,60,30.34,30.01,17,2,17,0.04
2014-2-7,33.1,21.5,5.6,18.0,11.5,0.3,89,67,46,30.32,30.19,13,1,13,0.04
2014-2-8,27.7,19.1,6.5,13.6,7.9,1.8,87,63,44,30.37,30.18,7,1,7,0.00
2014-2-9,29.9,22.4,12.5,22.8,14.2,6.5,88,71,54,30.23,29.98,9,1,9,0.01
2014-2-10,30.2,22.8,14.8,20.3,13.1,6.7,89,67,46,30.29,29.98,14,2,14,0.00
2014-2-11,27.4,16.4,3.8,11.6,6.5,-1.1,84,66,47,30.52,30.28,8,1,9,0.00
2014-2-12,26.2,14.8,0.3,14.6,4.9,-4.3,85,66,43,30.62,30.38,9,1,9,0.00
2014-2-13,31.4,24.5,17.4,29.1,21.1,8.2,94,87,66,30.38,29.11,24,4,27,0.00
2014-2-14,39.9,34.2,29.2,32.0,26.9,23.4,95,76,57,29.77,29.04,29,4,29,0.18
2014-2-15,33.7,29.6,24.6,28.6,24.8,16.1,90,82,63,29.81,29.67,15,2,15,0.00
2014-2-16,30.9,25.1,20.2,21.5,13.7,9.7,82,62,50,30.11,29.74,19,3,21,0.01
2014-2-17,29.9,20.7,11.8,17.3,7.0,-0.1,77,56,34,30.42,30.11,8,1,10,0.00
2014-2-18,32.8,24.6,16.2,27.7,19.2,7.5,91,80,56,30.36,29.96,5,0,6,0.00
2014-2-19,41.1,27.1,14.7,35.8,23.9,11.2,92,88,74,30.12,29.70,24,2,24,0.00
2014-2-20,46.6,38.4,28.1,34.8,30.5,22.1,92,74,52,30.23,29.99,13,2,13,0.44
2014-2-21,40.7,37.2,33.6,39.4,35.6,32.3,96,94,90,30.05,29.65,11,1,11,0.27
2014-2-22,54.7,42.1,32.2,34.0,28.3,22.8,96,63,29,29.98,29.86,24,2,24,0.00
2014-2-23,51.2,40.4,30.7,33.6,28.7,23.5,78,63,49,30.00,29.79,8,1,8,0.00
2014-2-24,38.4,30.9,23.9,29.3,15.2,7.5,74,52,37,30.06,29.81,23,4,23,0.00
2014-2-25,32.9,24.8,15.7,16.5,10.3,6.0,72,54,41,30.07,29.92,29,3,30,0.00
2014-2-26,32.9,21.1,14.1,16.7,6.2,-2.6,76,54,31,29.97,29.85,23,2,23,0.00
2014-2-27,31.2,18.3,7.6,15.9,4.3,-7.5,77,55,35,30.08,29.61,28,3,32,0.00
2014-2-28,24.1,15.7,6.9,8.6,-0.9,-7.8,70,48,36,30.46,30.08,15,2,17,0.00
2014-3-1,36.5,23.7,6.4,16.3,8.5,-0.8,74,54,37,30.46,30.12,13,2,18,0.00
2014-3-2,36.4,30.4,21.8,22.7,17.6,11.8,70,59,51,30.13,30.02,15,2,15,0.00
2014-3-3,22.0,18.1,12.5,12.3,2.7,-2.5,66,51,38,30.39,30.08,16,3,16,0.00
2014-3-4,31.9,18.8,3.3,13.1,4.8,-2.8,79,55,34,30.46,30.26,7,1,7,0.00
2014-3-5,29.9,23.7,15.9,18.2,12.3,2.2,84,62,53,30.56,30.25,15,3,15,0.00
2014-3-6,33.4,19.4,10.5,14.4,2.7,-2.5,69,49,28,30.70,30.51,11,2,15,0.00
2014-3-7,41.3,26.5,10.8,26.2,15.3,2.4,75,62,52,30.52,29.97,8,1,9,0.00
2014-3-8,49.6,37.8,25.2,32.9,26.7,20.7,84,65,46,29.97,29.78,16,1,16,0.00
2014-3-9,43.2,36.1,28.2,29.0,19.2,11.9,74,51,32,30.02,29.89,20,3,20,0.00
2014-3-10,51.7,40.5,30.9,32.5,26.0,15.9,73,56,44,29.90,29.56,14,2,14,0.00
2014-3-11,62.7,49.0,36.6,39.4,31.8,28.8,79,55,30,29.71,29.50,20,2,21,0.00
2014-3-12,45.2,37.1,24.7,37.6,32.2,21.1,94,83,61,29.70,29.08,22,4,25,0.34
2014-3-13,27.7,21.8,15.9,21.8,8.4,0.0,87,58,32,30.08,29.21,25,5,25,0.00
2014-3-14,43.9,30.5,18.4,25.9,14.1,4.8,65,51,38,30.21,29.88,17,2,17,0.01
2014-3-15,58.2,44.7,36.8,35.1,29.8,18.8,68,57,40,30.01,29.70,29,3,29,0.00
2014-3-16,37.9,31.1,21.9,20.6,11.0,4.4,60,44,29,30.24,30.00,18,4,18,0.00
2014-3-17,30.6,22.5,15.8,13.9,4.2,0.2,59,46,32,30.21,30.08,19,4,19,0.00
2014-3-18,44.9,30.0,16.9,19.0,11.0,4.7,74,48,24,30.35,30.17,9,1,9,0.00
2014-3-19,47.2,34.5,23.3,35.6,25.1,16.3,93,70,45,30.34,29.90,12,1,12,0.64
2014-3-20,55.4,43.0,34.8,43.3,31.7,22.8,94,68,39,29.90,29.69,26,3,26,0.01
2014-3-21,46.4,40.0,32.5,24.5,22.1,18.4,68,49,38,30.08,29.85,22,5,25,0.00
2014-3-22,59.4,41.3,27.8,36.0,27.1,21.3,81,59,34,30.08,29.72,29,3,33,0.00
2014-3-23,41.6,35.3,23.9,26.5,17.2,7.2,75,48,32,30.18,29.98,18,3,18,0.00
2014-3-24,36.7,26.9,18.7,14.4,8.2,3.1,69,46,29,30.24,30.09,13,2,13,0.00
2014-3-25,42.2,31.1,17.7,20.6,14.8,10.2,77,53,35,30.19,29.90,14,1,14,0.00
2014-3-26,36.2,30.4,23.4,23.0,10.8,0.9,68,45,26,30.21,29.79,32,5,32,0.00
2014-3-27,45.9,33.6,21.4,22.8,12.5,6.4,64,43,26,30.42,30.21,15,3,15,0.00
2014-3-28,46.2,40.8,36.1,44.2,33.6,20.9,94,77,48,30.22,29.95,10,1,10,0.20
2014-3-29,49.3,44.1,37.4,44.7,40.7,35.1,95,88,71,30.23,29.80,12,2,13,1.00
2014-3-30,43.4,41.0,38.3,40.3,38.9,34.4,95,92,85,29.80,29.59,23,7,23,0.90
2014-3-31,53.8,41.3,36.0,35.7,31.7,27.8,87,70,49,30.10,29.75,26,8,27,0.00
2014-4-1,57.2,45.5,34.6,36.5,31.1,27.0,77,58,42,30.15,29.97,22,3,22,0.00
2014-4-2,63.4,48.6,37.8,41.6,36.6,32.6,82,65,41,30.11,29.99,9,2,9,0.00
2014-4-3,55.7,46.9,32.2,35.8,29.7,24.8,87,54,35,30.16,30.04,13,2,13,0.00
2014-4-4,50.4,43.0,38.0,36.6,32.1,28.3,91,66,52,30.10,29.80,14,2,14,0.24
2014-4-5,53.9,43.5,37.0,43.1,31.6,23.3,93,66,40,30.05,29.74,22,3,22,0.01
2014-4-6,58.7,44.9,30.8,31.0,25.2,21.1,78,49,26,30.19,30.05,10,2,12,0.00
2014-4-7,55.9,44.5,34.4,39.8,31.4,18.8,93,64,25,30.20,29.74,12,1,12,0.18
2014-4-8,68.7,50.9,40.7,55.5,42.6,35.1,95,76,47,29.74,29.31,29,3,30,0.09
2014-4-9,60.4,49.4,36.6,39.5,27.9,12.9,86,47,22,30.02,29.60,27,3,27,0.00
2014-4-10,67.5,50.7,31.4,37.6,29.5,21.1,76,47,29,30.16,29.95,22,4,23,0.00
2014-4-11,73.7,56.5,47.8,54.6,43.6,36.1,92,65,39,30.05,29.88,14,2,14,0.32
2014-4-12,74.0,56.7,42.7,50.3,41.1,31.0,96,64,22,30.22,30.01,17,2,17,0.01
2014-4-13,82.7,63.7,46.3,55.9,47.8,37.9,78,57,39,30.17,29.88,23,3,23,0.00
2014-4-14,81.8,69.6,59.5,59.8,55.4,53.1,82,62,38,29.93,29.75,26,4,26,0.00
2014-4-15,65.0,55.7,33.7,60.7,51.7,31.6,94,87,70,29.92,29.45,22,4,23,1.14
2014-4-16,44.2,36.8,29.4,32.7,20.2,13.3,93,53,32,30.61,29.92,19,4,19,0.05
2014-4-17,56.4,42.3,30.3,29.7,22.8,19.4,70,48,28,30.77,30.60,10,2,10,0.00
2014-4-18,53.9,43.6,33.0,32.4,29.7,25.8,86,59,42,30.62,30.22,11,1,11,0.00
2014-4-19,62.1,50.7,36.4,39.1,30.7,25.6,81,49,26,30.39,30.19,22,4,22,0.00
2014-4-20,64.5,52.0,36.8,32.5,28.2,21.6,74,43,21,30.50,30.31,12,2,12,0.00
2014-4-21,76.0,58.1,38.5,36.8,28.0,11.9,75,38,10,30.31,29.81,15,2,15,0.00
2014-4-22,77.3,60.2,49.0,54.0,45.5,36.8,84,61,31,29.81,29.47,12,2,30,0.00
2014-4-23,57.2,49.9,45.1,51.7,40.5,28.4,92,71,50,29.81,29.47,25,3,26,0.29
2014-4-24,59.9,50.0,37.4,29.0,20.6,14.1,64,33,19,30.02,29.81,25,5,26,0.00
2014-4-25,68.3,51.6,35.0,41.5,27.8,20.9,86,44,21,30.06,29.76,16,2,16,0.11
2014-4-26,63.2,50.5,43.4,50.2,43.4,37.6,91,78,49,29.86,29.67,15,1,16,0.34
2014-4-27,55.4,49.6,43.7,40.5,37.7,34.9,82,64,48,30.14,29.86,13,2,14,0.00
2014-4-28,62.7,52.8,38.5,41.6,37.1,34.3,90,58,36,30.15,30.00,17,3,17,0.00
2014-4-29,54.4,47.9,42.3,41.4,39.2,37.1,90,72,56,30.45,30.13,13,3,14,0.13
2014-4-30,47.4,44.1,40.7,45.7,41.6,37.8,94,91,85,30.46,30.02,8,1,8,1.53
2014-5-1,79.0,58.4,47.1,61.0,50.7,45.5,96,79,36,30.02,29.61,18,2,21,0.26
2014-5-2,70.0,59.2,47.5,49.5,42.3,36.3,89,57,34,29.81,29.67,22,2,22,0.00
2014-5-3,74.5,59.5,48.8,49.1,43.0,39.3,88,56,35,29.85,29.69,19,2,21,0.05
2014-5-4,68.8,56.5,48.0,49.4,38.5,27.5,89,55,24,29.75,29.57,37,5,37,0.00
2014-5-5,67.5,57.7,48.7,40.6,37.0,31.5,68,47,30,29.88,29.75,20,3,20,0.00
2014-5-6,66.8,55.9,42.8,40.1,35.3,29.7,83,49,27,30.08,29.88,20,2,20,0.00
2014-5-7,69.0,55.7,40.2,40.0,35.0,29.8,82,49,28,30.24,30.08,7,1,7,0.00
2014-5-8,69.5,58.1,49.1,55.9,49.4,38.5,87,73,61,30.16,30.05,9,1,9,0.00
2014-5-9,62.4,59.0,55.1,59.9,56.7,53.3,96,92,85,30.17,29.99,7,0,9,0.18
2014-5-10,87.1,69.6,59.6,67.2,59.8,55.6,97,74,38,29.99,29.73,32,1,32,0.01
2014-5-11,82.5,70.9,60.4,56.8,40.9,30.3,71,37,16,30.03,29.81,21,2,21,0.00
2014-5-12,91.1,70.7,50.2,58.4,49.1,39.9,80,50,23,30.10,29.95,17,1,17,0.00
2014-5-13,78.0,67.7,59.1,58.8,48.1,42.5,64,50,39,30.24,30.00,10,1,10,0.00
2014-5-14,79.0,63.3,52.7,59.2,50.2,43.6,81,63,45,30.28,30.15,11,1,12,0.00
2014-5-15,71.0,65.0,60.5,67.4,61.6,57.1,94,89,80,30.23,30.05,6,0,6,0.08
2014-5-16,71.8,66.9,57.3,67.0,64.6,56.1,96,92,83,30.05,29.76,10,1,12,1.11
2014-5-17,72.8,58.4,48.5,56.2,47.5,41.7,96,70,37,30.13,29.77,17,1,17,0.13
2014-5-18,69.2,56.7,43.5,46.1,39.2,30.5,91,55,31,30.20,30.11,15,1,15,0.00
2014-5-19,74.7,57.2,40.6,46.6,40.1,30.8,87,56,25,30.20,30.04,26,2,26,0.05
2014-5-20,81.5,63.2,45.2,50.9,44.1,34.1,90,56,22,30.13,29.93,11,1,12,0.00
2014-5-21,82.2,66.5,56.1,58.3,51.5,45.1,82,61,33,29.98,29.84,11,0,11,0.00
2014-5-22,67.7,60.8,57.5,61.1,57.3,55.3,95,88,78,29.85,29.75,7,0,7,0.42
2014-5-23,67.3,60.3,56.3,61.7,57.4,53.6,95,90,74,29.94,29.82,6,0,7,0.10
2014-5-24,70.0,60.9,55.5,63.2,55.7,52.6,94,84,63,30.06,29.92,9,1,11,0.10
2014-5-25,83.7,66.5,50.8,57.9,52.4,48.7,94,65,33,30.09,29.97,9,1,9,0.01
2014-5-26,92.5,72.6,60.3,63.0,55.9,50.8,77,59,27,30.01,29.82,15,1,15,0.00
2014-5-27,94.2,77.2,63.4,66.3,61.2,55.6,85,60,34,29.85,29.67,11,1,11,0.00
2014-5-28,70.2,57.8,53.0,65.8,53.1,45.9,93,84,75,30.19,29.75,9,1,10,0.08
2014-5-29,74.1,57.9,46.8,50.8,47.1,43.8,92,69,38,30.23,30.08,6,0,6,0.00
2014-5-30,79.1,63.4,54.5,58.2,51.2,46.3,91,66,39,30.11,29.98,16,1,16,0.02
2014-5-31,72.7,61.7,49.4,53.4,50.3,47.3,93,69,44,30.28,30.09,16,1,18,0.01
2014-6-1,81.5,66.0,49.8,56.9,48.6,42.6,92,58,30,30.36,30.18,8,1,8,0.00
2014-6-2,89.5,73.2,54.4,63.3,55.9,45.0,77,56,39,30.22,29.94,12,1,12,0.00
2014-6-3,92.3,72.9,62.5,70.4,64.3,58.3,92,76,47,29.97,29.75,11,0,15,0.27
2014-6-4,81.5,70.7,62.5,65.8,60.0,51.6,95,72,44,29.84,29.72,9,0,9,0.04
2014-6-5,77.6,65.5,59.9,62.5,57.5,48.6,94,77,47,29.77,29.63,15,1,15,0.45
2014-6-6,80.2,67.1,58.8,58.0,52.5,48.4,80,60,42,29.93,29.76,16,1,16,0.00
2014-6-7,85.8,69.5,53.1,61.6,56.2,50.5,92,66,38,30.00,29.87,6,1,6,0.00
2014-6-8,90.0,72.7,57.2,64.1,58.3,53.7,89,64,34,29.94,29.81,9,1,9,0.00
2014-6-9,71.9,66.5,64.0,63.7,61.5,57.1,92,84,63,29.96,29.86,10,0,10,0.22
2014-6-10,82.7,71.6,63.2,69.5,64.7,60.5,92,80,62,29.97,29.91,7,0,8,0.00
2014-6-11,72.2,63.8,60.4,67.3,60.6,57.3,94,90,80,30.13,29.97,9,0,9,0.45
2014-6-12,65.0,62.5,59.8,63.8,59.7,56.2,96,91,81,30.09,29.92,4,0,5,0.09
2014-6-13,74.5,68.0,64.7,70.9,66.6,63.5,97,95,88,29.93,29.70,4,0,4,0.63
2014-6-14,72.8,66.9,58.7,65.9,58.7,49.6,97,77,49,30.00,29.75,21,1,21,0.01
2014-6-15,78.3,66.7,52.3,60.8,56.2,50.3,94,71,50,30.10,29.99,13,1,13,0.00
2014-6-16,87.5,72.8,55.8,64.3,59.3,53.5,93,65,41,30.16,29.97,7,1,8,0.00
2014-6-17,94.4,78.3,64.7,72.7,65.2,59.4,84,66,45,30.03,29.79,7,0,8,0.00
2014-6-18,88.7,77.2,67.7,69.5,65.6,63.6,92,69,46,29.96,29.75,23,2,23,0.18
2014-6-19,84.2,75.3,62.4,69.4,60.7,47.1,94,63,38,29.99,29.91,10,1,12,0.07
2014-6-20,79.8,67.9,53.9,57.4,50.8,46.1,89,58,33,30.00,29.88,13,1,13,0.00
2014-6-21,79.5,67.3,52.8,56.1,50.8,43.8,84,58,32,29.99,29.86,7,0,7,0.00
2014-6-22,82.8,70.6,56.3,59.1,54.1,47.9,88,59,32,30.00,29.90,7,0,7,0.00
2014-6-23,89.3,72.5,57.5,65.2,58.4,53.6,89,64,35,30.10,30.00,8,1,9,0.00
2014-6-24,85.3,72.8,62.8,66.9,60.6,56.4,82,66,51,30.10,29.94,13,1,13,0.00
2014-6-25,89.2,75.6,66.2,73.8,67.1,59.4,95,76,58,29.96,29.77,15,1,15,0.78
2014-6-26,83.0,74.9,68.5,72.4,67.8,62.3,95,80,62,29.96,29.78,13,1,13,0.01
2014-6-27,84.5,74.0,63.3,65.3,59.5,51.3,91,64,35,30.19,29.97,12,1,12,0.00
2014-6-28,91.0,73.4,58.4,66.2,59.4,47.8,89,66,25,30.27,30.17,6,0,7,0.00
2014-6-29,92.8,75.6,61.9,69.5,63.1,58.8,91,67,36,30.22,30.04,9,0,9,0.00
2014-6-30,89.5,77.1,65.9,70.5,64.6,58.3,82,66,47,30.07,29.88,12,0,12,0.00
2014-7-1,95.5,82.3,68.0,75.6,70.5,64.4,90,69,51,29.91,29.72,15,1,15,0.00
2014-7-2,97.8,79.3,71.2,79.3,72.6,69.1,95,82,55,29.90,29.77,23,1,23,1.07
2014-7-3,92.7,74.9,67.4,80.9,70.6,65.9,96,88,61,29.96,29.83,13,1,18,1.09
2014-7-4,72.2,67.3,64.2,66.8,63.3,53.4,97,88,64,30.01,29.90,8,0,9,0.89
2014-7-5,85.9,73.6,59.7,56.4,51.4,44.5,79,49,30,30.09,29.97,19,2,19,0.00
2014-7-6,88.7,81.6,71.5,62.0,59.8,55.1,70,49,34,30.03,29.85,19,2,19,0.00
2014-7-7,92.3,78.1,69.8,75.1,66.9,60.6,91,70,48,29.86,29.64,17,1,17,0.13
2014-7-8,92.3,79.6,68.0,75.2,69.8,65.5,93,74,51,29.77,29.58,20,1,28,0.18
2014-7-9,90.3,75.4,66.5,70.7,66.7,63.6,93,76,49,29.95,29.67,17,1,18,0.03
2014-7-10,84.2,72.4,63.8,64.6,61.8,57.6,93,71,48,30.14,29.94,8,0,9,0.01
2014-7-11,86.4,73.6,62.2,62.5,58.7,54.3,85,62,38,30.22,30.14,5,0,7,0.00
2014-7-12,92.3,76.2,61.7,71.0,63.7,58.9,92,68,43,30.20,30.06,11,1,11,0.00
2014-7-13,83.5,73.2,69.2,72.8,66.8,61.6,96,81,68,30.07,29.82,13,0,15,2.13
2014-7-14,83.0,74.3,69.2,73.7,70.3,68.1,97,88,72,29.89,29.80,6,0,8,0.12
2014-7-15,85.5,76.4,71.2,74.9,71.9,69.5,96,87,68,29.80,29.67,8,0,9,0.60
2014-7-16,83.3,73.0,63.7,69.9,64.7,59.1,96,77,53,29.88,29.70,9,0,9,0.22
2014-7-17,80.6,69.0,58.6,64.8,60.1,56.6,93,75,54,30.10,29.87,9,0,9,0.00
2014-7-18,82.5,69.0,55.7,63.3,58.8,53.7,93,73,45,30.23,30.10,6,1,7,0.00
2014-7-19,79.3,69.3,61.1,66.4,61.8,58.1,91,78,54,30.25,30.17,6,0,7,0.00
2014-7-20,84.7,72.0,62.2,65.3,61.8,56.5,93,72,48,30.18,30.07,4,0,5,0.06
2014-7-21,88.3,73.4,61.3,69.7,64.6,59.3,93,76,49,30.19,30.09,5,0,5,0.00
2014-7-22,94.7,79.5,66.2,73.8,69.1,63.8,93,73,49,30.13,29.98,10,1,11,0.00
2014-7-23,95.8,83.7,71.6,77.2,73.1,67.9,95,73,52,29.92,29.69,29,1,29,0.94
2014-7-24,79.3,72.3,63.6,70.4,62.2,56.7,94,72,49,29.92,29.77,13,1,13,0.06
2014-7-25,84.0,69.7,56.4,63.8,59.4,54.4,94,72,46,30.03,29.91,6,0,6,0.00
2014-7-26,85.3,72.2,60.5,66.1,61.8,57.8,92,72,49,29.97,29.84,9,0,10,0.00
2014-7-27,90.8,76.2,66.2,74.3,68.1,62.6,96,78,53,29.85,29.59,14,0,16,0.26
2014-7-28,85.7,73.2,67.9,71.9,68.2,58.1,94,85,57,29.65,29.42,18,2,18,0.11
2014-7-29,79.0,69.2,60.8,58.3,55.6,52.1,84,63,44,29.94,29.65,10,1,12,0.00
2014-7-30,83.5,70.2,60.4,61.5,58.2,54.5,89,68,41,30.02,29.94,7,0,7,0.00
2014-7-31,85.5,70.7,59.9,65.7,61.6,57.0,91,75,47,30.11,30.00,10,1,12,0.00
2014-8-1,87.7,70.1,62.7,71.2,64.4,60.6,94,83,57,30.18,30.11,12,0,12,0.01
2014-8-2,85.0,72.4,65.9,68.5,64.1,60.8,94,77,50,30.17,30.08,6,0,6,0.00
2014-8-3,85.0,70.2,63.3,68.2,63.4,61.2,94,81,52,30.11,30.01,6,0,6,0.00
2014-8-4,83.7,78.3,71.3,68.6,67.4,65.5,87,70,57,30.02,29.97,3,0,3,0.00
2014-8-5,91.0,75.5,63.6,72.3,66.1,61.1,93,75,46,30.03,29.85,10,1,13,0.16
2014-8-6,83.5,71.2,64.5,70.2,65.0,60.3,94,82,52,29.92,29.81,19,1,20,0.24
2014-8-7,84.1,68.6,57.1,64.4,57.7,51.3,92,71,38,30.00,29.88,15,1,15,0.00
2014-8-8,83.0,68.6,55.9,63.4,58.6,53.6,93,73,46,30.08,30.00,10,0,10,0.00
2014-8-9,84.8,71.2,58.1,65.2,60.2,55.3,91,71,42,30.12,30.04,9,1,9,0.00
2014-8-10,86.8,72.5,59.2,67.2,61.2,56.3,91,70,39,30.15,30.06,7,1,7,0.00
2014-8-11,91.3,74.6,62.0,68.8,61.3,56.4,92,66,35,30.12,30.03,8,0,9,0.00
2014-8-12,79.8,70.1,62.2,68.9,64.7,58.8,92,83,63,30.07,29.87,6,0,7,0.02
2014-8-13,77.3,71.0,66.0,69.5,65.7,60.1,94,83,70,29.87,29.63,7,0,8,0.17
2014-8-14,77.5,66.0,58.3,61.8,54.8,50.1,90,68,41,29.87,29.73,14,1,15,0.08
2014-8-15,74.3,63.5,54.3,57.4,54.8,51.8,95,75,52,29.95,29.86,10,1,11,0.01
2014-8-16,79.7,66.4,54.1,59.4,55.2,48.6,91,70,39,29.99,29.87,12,1,12,0.00
2014-8-17,82.3,70.1,61.3,64.0,58.1,55.4,84,67,42,29.88,29.79,13,1,13,0.00
2014-8-18,80.6,67.6,55.6,61.1,56.3,53.1,93,69,49,29.90,29.80,7,1,7,0.00
2014-8-19,82.7,67.7,53.4,61.8,56.9,50.8,92,71,46,29.93,29.85,5,0,5,0.00
2014-8-20,89.2,74.4,60.7,69.5,64.0,57.6,91,72,52,29.98,29.91,9,0,9,0.00
2014-8-21,80.3,72.0,64.4,70.9,65.0,59.1,93,79,63,30.03,29.95,8,0,8,0.16
2014-8-22,70.0,67.3,65.4,65.4,63.6,61.7,94,88,81,30.06,29.98,4,0,4,0.03
2014-8-23,78.5,68.9,63.7,64.5,62.2,59.8,92,80,57,30.12,30.04,5,0,7,0.00
2014-8-24,81.8,68.7,58.0,65.5,61.1,56.3,95,79,49,30.17,30.08,10,1,10,0.01
2014-8-25,88.8,72.3,58.6,67.1,62.1,56.9,94,73,41,30.19,30.09,7,1,7,0.00
2014-8-26,92.0,74.5,61.4,67.4,63.2,59.1,92,71,41,30.16,30.00,7,0,7,0.00
2014-8-27,93.8,77.2,64.9,74.0,68.1,61.4,91,75,48,30.02,29.82,7,0,7,0.00
2014-8-28,82.1,70.6,60.9,67.8,56.6,51.0,90,64,36,30.05,29.85,23,1,23,0.00
2014-8-29,79.8,66.4,53.5,59.4,55.3,50.6,91,69,48,30.22,30.04,8,0,8,0.00
2014-8-30,82.3,69.4,55.4,64.2,59.4,53.4,94,73,47,30.26,30.09,12,1,12,0.00
2014-8-31,83.2,73.9,70.5,74.8,68.4,64.0,95,83,71,30.10,29.91,10,1,10,0.21
2014-9-1,89.7,77.8,69.3,73.5,70.8,67.8,96,81,55,29.98,29.87,12,0,12,0.01
2014-9-2,94.4,82.6,70.6,77.8,71.6,68.2,95,72,45,29.89,29.70,11,1,15,0.08
2014-9-3,86.2,75.4,65.1,68.3,60.6,54.8,89,62,37,30.09,29.73,11,1,14,0.00
2014-9-4,91.1,74.8,58.9,65.3,60.5,55.8,90,65,37,30.18,30.04,9,1,11,0.00
2014-9-5,91.4,77.9,66.0,74.8,68.6,63.0,90,74,56,30.13,29.95,12,1,13,0.00
2014-9-6,93.7,78.2,63.1,76.0,69.1,60.1,93,76,47,29.95,29.75,17,1,17,0.63
2014-9-7,78.2,68.2,59.7,65.0,56.9,48.0,96,71,37,30.20,29.92,9,1,10,0.01
2014-9-8,77.8,66.1,53.7,59.8,55.8,51.1,91,71,49,30.33,30.20,6,0,6,0.00
2014-9-9,74.8,65.6,56.0,62.1,57.5,51.8,92,76,59,30.31,30.14,6,0,7,0.00
2014-9-10,81.2,68.1,55.0,61.0,57.6,52.6,93,71,47,30.14,29.97,5,0,6,0.00
2014-9-11,80.5,69.3,62.9,71.9,64.1,55.1,93,84,74,29.97,29.76,8,1,10,0.02
2014-9-12,69.3,62.3,56.4,55.2,51.4,48.6,80,68,53,30.22,29.96,12,1,13,0.00
2014-9-13,60.4,56.0,51.1,57.1,51.5,44.8,95,85,70,30.23,30.09,7,0,11,0.24
2014-9-14,67.0,56.3,48.2,52.2,48.0,44.5,96,76,51,30.29,30.17,10,1,10,0.02
2014-9-15,71.7,58.7,48.2,53.0,48.7,44.6,92,72,46,30.25,30.05,4,0,6,0.00
2014-9-16,69.6,59.8,54.0,59.2,54.4,50.9,94,83,66,30.05,29.95,7,0,7,0.08
2014-9-17,73.9,59.2,46.3,55.3,49.5,44.4,94,74,42,30.06,29.93,8,1,10,0.00
2014-9-18,76.6,59.8,47.5,55.2,50.2,45.0,92,73,43,30.15,29.95,10,1,15,0.00
2014-9-19,67.1,55.8,47.2,48.9,43.4,36.8,82,64,44,30.37,30.15,9,1,12,0.00
2014-9-20,75.5,62.8,51.9,60.9,55.1,46.8,89,77,58,30.34,30.04,12,1,12,0.00
2014-9-21,80.2,69.0,60.9,68.7,63.2,57.4,93,83,67,30.05,29.56,9,0,12,0.00
2014-9-22,71.9,62.0,49.6,60.1,49.2,39.9,89,65,43,30.14,29.58,20,2,22,0.00
2014-9-23,71.5,57.4,43.7,53.0,46.9,40.6,90,70,47,30.42,30.14,8,0,9,0.00
2014-9-24,75.7,60.2,49.2,58.1,51.7,46.4,92,75,47,30.58,30.42,5,0,5,0.00
2014-9-25,65.0,58.5,54.6,54.1,52.7,51.6,92,82,67,30.50,30.24,4,0,6,0.00
2014-9-26,77.3,64.0,51.1,58.4,54.5,48.8,93,73,49,30.25,30.14,10,1,14,0.00
2014-9-27,82.0,66.4,52.8,61.8,57.0,50.5,93,74,47,30.24,30.13,8,1,8,0.00
2014-9-28,84.9,68.4,56.0,65.7,59.8,53.7,93,76,48,30.17,29.98,7,0,8,0.00
2014-9-29,76.8,66.7,59.2,62.3,58.5,55.0,88,76,54,29.99,29.88,6,0,7,0.00
2014-9-30,73.8,64.5,59.7,64.9,59.2,56.2,92,83,64,30.00,29.90,8,0,9,0.00
2014-10-1,64.1,61.0,58.7,60.5,58.0,55.3,95,90,83,30.09,29.99,7,0,9,0.12
2014-10-2,71.0,63.2,58.4,60.6,58.0,56.3,94,84,65,30.17,30.07,8,0,8,0.01
2014-10-3,74.9,64.0,53.3,56.9,52.3,48.1,89,68,41,30.10,29.82,7,0,8,0.00
2014-10-4,62.4,58.7,51.4,60.8,56.1,49.1,95,91,79,29.83,29.48,6,0,8,0.54
2014-10-5,63.7,52.0,41.1,48.9,40.4,34.8,92,67,39,29.97,29.64,13,2,14,0.00
2014-10-6,69.6,54.7,38.8,51.8,44.7,36.4,92,71,41,30.07,29.96,9,1,10,0.00
2014-10-7,74.7,63.7,55.3,58.9,53.8,49.1,89,72,44,30.03,29.84,16,1,17,0.02
2014-10-8,74.9,64.2,57.1,59.6,51.6,40.2,96,67,38,29.91,29.69,19,2,20,0.40
2014-10-9,70.5,57.7,47.3,45.5,42.3,38.1,82,59,34,30.03,29.86,20,2,20,0.00
2014-10-10,67.4,54.6,42.2,45.4,41.9,37.4,85,64,39,30.12,30.03,9,1,9,0.00
2014-10-11,59.9,52.0,47.4,49.6,46.5,43.6,93,82,66,30.17,30.05,5,0,5,0.08
2014-10-12,63.7,50.5,38.9,46.7,42.8,37.4,95,77,49,30.31,30.17,6,0,6,0.01
2014-10-13,61.7,52.4,41.1,54.4,47.0,38.3,92,82,68,30.33,30.23,8,0,9,0.00
2014-10-14,78.5,66.3,56.6,67.2,61.1,54.2,96,84,64,30.23,30.06,8,0,9,0.01
2014-10-15,79.7,72.2,67.8,70.5,66.5,63.6,95,83,71,30.06,29.81,11,0,11,0.37
2014-10-16,71.0,67.0,57.5,68.5,63.6,54.9,97,89,62,29.81,29.61,7,0,12,1.25
2014-10-17,72.8,62.7,55.3,56.7,53.6,51.8,93,74,50,29.68,29.59,13,1,13,0.00
2014-10-18,67.3,58.8,53.0,57.3,50.7,45.1,92,75,57,29.68,29.51,16,2,21,0.00
2014-10-19,56.4,49.1,37.8,47.9,35.7,28.8,82,60,43,30.05,29.68,22,2,22,0.00
2014-10-20,56.0,45.7,34.3,43.3,36.6,30.3,88,72,53,30.09,29.94,9,0,10,0.00
2014-10-21,53.0,49.7,46.0,51.6,47.5,42.3,95,92,82,29.97,29.87,8,0,9,0.65
2014-10-22,53.9,51.4,49.1,50.8,48.4,46.8,95,89,82,30.03,29.81,17,3,17,0.29
2014-10-23,51.6,49.6,47.8,47.9,46.7,45.6,93,90,83,29.85,29.74,17,3,21,0.59
2014-10-24,57.6,51.7,46.0,48.8,46.4,43.4,92,82,69,29.85,29.76,9,0,10,0.00
2014-10-25,67.0,52.7,39.3,51.1,44.8,37.7,95,77,49,29.85,29.53,11,1,11,0.01
2014-10-26,56.9,51.6,45.2,48.9,43.0,40.9,91,73,58,29.79,29.48,20,3,21,0.05
2014-10-27,61.9,53.5,43.7,46.0,42.0,40.4,88,66,48,30.02,29.78,16,1,18,0.00
2014-10-28,72.3,56.4,41.7,52.9,46.1,38.6,90,71,45,30.03,29.85,9,1,9,0.00
2014-10-29,65.8,56.0,46.9,58.2,52.3,45.4,95,88,76,29.93,29.81,10,0,12,0.11
2014-10-30,58.1,49.4,43.2,47.5,42.2,38.4,95,78,51,30.03,29.91,11,0,11,0.00
2014-10-31,53.7,45.4,34.7,41.4,37.9,32.3,93,76,56,30.06,29.91,8,0,8,0.00
2014-11-1,48.6,44.5,39.6,41.6,37.1,33.7,90,76,58,29.94,29.83,16,3,16,0.01
2014-11-2,47.1,42.3,39.8,35.2,27.1,18.4,81,56,37,30.01,29.85,24,4,26,0.00
2014-11-3,62.7,48.5,35.5,35.4,28.3,19.8,77,49,20,30.10,29.98,20,1,20,0.00
2014-11-4,70.4,58.6,47.7,35.4,30.4,23.2,56,35,25,30.12,29.96,13,2,13,0.00
2014-11-5,64.1,56.2,46.6,44.7,35.2,29.4,66,46,28,30.11,29.93,16,1,16,0.00
2014-11-6,48.2,46.0,44.6,44.2,39.6,34.3,93,79,60,30.10,29.57,5,0,5,0.14
2014-11-7,51.9,45.0,40.2,43.4,35.4,26.5,93,70,52,29.90,29.56,19,2,20,0.00
2014-11-8,50.4,42.6,33.2,32.4,28.4,24.8,78,58,42,30.02,29.86,12,1,12,0.00
2014-11-9,56.4,47.0,38.1,36.8,33.7,31.6,80,61,43,30.02,29.86,12,1,12,0.00
2014-11-10,58.2,45.6,34.4,38.6,35.4,30.8,88,69,44,30.15,30.01,6,0,7,0.00
2014-11-11,64.5,51.6,39.1,54.0,45.2,35.1,88,79,66,30.13,29.90,8,1,8,0.00
2014-11-12,65.8,51.9,39.7,56.3,45.8,31.8,93,80,69,30.09,29.85,12,1,15,0.00
2014-11-13,48.7,40.2,31.4,35.1,30.3,27.7,93,70,46,30.13,29.99,4,0,8,0.02
2014-11-14,43.6,36.8,31.0,34.1,26.3,18.5,94,68,40,30.18,29.97,16,1,16,0.00
2014-11-15,43.4,34.1,28.1,26.3,21.3,16.4,83,61,37,30.37,30.18,10,1,10,0.00
2014-11-16,41.2,34.8,26.2,30.3,25.1,19.9,81,68,51,30.39,30.09,12,1,15,0.00
2014-11-17,43.8,39.0,35.7,41.2,36.1,28.8,95,90,67,30.10,29.46,10,0,12,0.00
2014-11-18,42.8,31.3,22.3,37.1,15.8,4.6,87,54,31,30.03,29.55,22,4,25,0.00
2014-11-19,36.4,27.2,20.2,14.7,10.8,7.5,61,50,37,30.23,30.03,16,3,16,0.00
2014-11-20,44.2,33.4,25.9,23.9,16.7,10.4,71,51,36,30.04,29.80,25,3,27,0.01
2014-11-21,34.7,28.5,22.8,16.3,12.9,10.0,73,52,41,30.49,29.99,19,3,19,0.00
2014-11-22,42.8,32.8,20.1,21.8,16.5,13.0,75,53,33,30.49,30.13,16,3,18,0.00
2014-11-23,57.7,47.1,40.6,33.2,28.4,21.5,62,48,37,30.17,30.00,11,1,11,0.00
2014-11-24,72.3,58.4,41.1,63.3,52.3,31.2,96,81,60,30.00,29.45,18,2,18,0.79
2014-11-25,60.8,52.7,41.1,55.3,37.0,30.6,86,57,40,30.15,29.68,19,3,20,0.00
2014-11-26,42.4,36.0,32.7,33.2,31.1,28.8,94,83,64,30.21,29.85,12,1,13,0.04
2014-11-27,34.4,32.1,30.4,32.5,29.8,28.1,94,91,89,30.08,29.87,7,0,7,0.10
2014-11-28,34.6,29.0,22.3,29.0,22.1,15.0,93,76,56,30.28,30.05,15,2,17,0.07
2014-11-29,32.6,26.5,17.7,26.2,20.0,14.6,89,77,63,30.37,30.22,10,1,10,0.01
2014-11-30,42.2,37.6,31.0,36.1,31.8,23.9,87,79,72,30.22,30.05,10,1,10,0.27
2014-12-1,51.4,43.6,37.3,43.8,35.3,22.1,87,73,55,30.50,30.03,15,3,15,0.01
2014-12-2,37.3,32.8,28.9,33.2,24.4,19.3,93,72,55,30.69,30.35,14,2,17,0.15
2014-12-3,42.6,38.0,34.0,39.2,35.0,25.1,95,89,59,30.35,29.94,17,3,17,0.07
2014-12-4,43.1,34.7,27.5,30.4,25.0,19.3,87,69,42,30.56,30.19,11,1,11,0.00
2014-12-5,37.4,30.6,23.5,32.8,25.7,20.8,94,82,66,30.65,30.38,6,1,7,0.16
2014-12-6,40.6,36.5,33.9,39.3,35.0,32.3,95,94,91,30.38,30.14,19,2,22,0.84
2014-12-7,36.8,31.5,21.1,34.7,20.4,-0.2,92,64,39,30.70,30.29,26,7,26,0.01
2014-12-8,61.9,23.6,16.4,25.2,13.5,1.8,78,65,43,30.78,30.44,18,2,18,0.00
2014-12-9,41.4,35.0,29.3,37.9,32.0,23.5,95,89,78,30.43,29.68,20,5,22,0.89
2014-12-10,41.2,36.3,30.5,36.3,32.1,26.1,92,85,71,29.69,29.55,13,3,13,0.03
2014-12-11,37.1,33.3,31.5,29.0,25.2,22.1,82,72,61,29.86,29.55,10,2,13,0.01
2014-12-12,38.0,32.9,29.1,29.8,25.9,22.3,88,76,63,30.00,29.85,7,1,11,0.00
2014-12-13,44.3,34.8,30.1,30.4,28.4,26.5,90,78,56,29.99,29.88,9,1,15,0.00
2014-12-14,45.1,34.9,27.8,35.3,30.4,25.8,92,84,68,29.99,29.88,6,0,6,0.00
2014-12-15,42.2,33.5,26.9,33.8,29.2,24.9,93,84,70,30.15,29.98,10,2,11,0.01
2014-12-16,41.9,36.2,29.0,38.3,33.1,27.0,95,89,80,30.13,29.86,4,0,5,0.25
2014-12-17,47.6,42.3,38.4,44.6,37.7,30.7,96,85,66,29.87,29.77,16,2,17,0.08
2014-12-18,42.6,38.6,36.7,31.2,28.2,25.9,73,66,58,29.96,29.84,22,5,22,0.00
2014-12-19,37.7,33.5,28.4,29.2,24.2,21.9,77,68,58,30.21,29.95,13,2,13,0.00
2014-12-20,30.7,28.9,26.7,24.2,21.9,19.8,78,75,71,30.33,30.21,10,2,12,0.00
2014-12-21,33.7,31.2,28.7,28.7,26.4,23.3,89,83,75,30.38,30.30,9,2,9,0.00
2014-12-22,38.2,34.4,31.1,34.9,31.3,27.0,92,88,82,30.38,30.22,7,1,8,0.04
2014-12-23,42.1,39.0,35.0,40.7,37.5,32.6,95,94,90,30.24,30.11,4,0,4,0.30
2014-12-24,46.7,43.8,40.6,45.6,42.6,39.3,96,96,95,30.11,29.49,5,0,5,0.36
2014-12-25,55.1,49.1,44.0,54.3,38.7,30.8,97,69,49,30.07,29.44,23,4,27,0.02
2014-12-26,51.6,41.7,31.6,34.6,31.7,28.5,90,68,49,30.25,30.07,11,2,11,0.00
2014-12-27,53.9,42.3,33.4,38.4,34.0,29.2,88,73,54,30.25,29.99,10,1,10,0.00
2014-12-28,48.7,45.1,38.7,44.5,36.7,26.8,89,73,61,30.07,29.82,15,2,16,0.04
2014-12-29,42.4,35.5,28.3,28.1,23.9,16.9,78,63,49,30.29,30.07,11,2,11,0.00
2014-12-30,32.6,26.7,22.7,17.0,13.4,9.0,69,57,42,30.42,30.28,14,2,14,0.00
2014-12-31,31.2,24.9,19.1,17.4,10.6,4.0,74,56,35,30.36,30.14,20,2,21,0.00
2015-1-1,35.5,27.7,19.2,18.4,12.1,8.2,71,52,38,30.14,29.92,22,4,22,0.00
2015-1-2,38.5,33.3,29.1,26.8,21.1,17.4,74,61,51,30.48,29.96,14,2,14,0.00